This demonstration page uses our WeatherBlox Daily Observations layout. Learn more.

Left ArrowRight Arrow

Hourly Observations for November 26, 2020

Temp ( °F °C ) Dew Point ( °F °C ) Humidity (%) Winds ( mph kmh ) Pressure ( in mb ) Visibility ( mi km ) Precip ( " mm )
12:52 am 00:52 Clear 31 -0.6 29 -1.7 92 92 SSE 12 19 29.96 1015 10 16 0.00 0.00
1:52 am 01:52 Clear 32 0 30 -1.1 92 92 SSE 12 19 29.94 1014 10 16 0.00 0.00
2:52 am 02:52 Clear 32 0 30 -1.1 92 92 SSE 16 26 29.94 1014 10 16 0.00 0.00
3:52 am 03:52 Clear 32 0 30 -1.1 92 92 SSE 14 22 29.95 1014 10 16 0.00 0.00
4:52 am 04:52 Clear 31 -0.6 29 -1.7 92 92 SSE 12 19 29.93 1014 10 16 0.00 0.00
5:52 am 05:52 Clear 31 -0.6 29 -1.7 92 92 S 10 17 29.94 1014 10 16 0.00 0.00
6:52 am 06:52 Clear 30 -1.1 28 -2.2 92 92 SE 7 11 29.97 1015 10 16 0.00 0.00
7:52 am 07:52 Sunny 29 -1.7 27 -2.8 92 92 SSE 7 11 29.98 1015 10 16 0.00 0.00
8:52 am 08:52 Sunny 34 1.1 30 -1.1 85 85 SSE 5 7 30.00 1016 10 16 0.00 0.00
9:52 am 09:52 Sunny 41 5 30 -1.1 65 65 WNW 9 15 30.01 1016 10 16 0.00 0.00
10:52 am 10:52 Mostly Sunny 43 6.1 31 -0.6 63 63 NNW 9 15 30.02 1017 10 16 0.00 0.00
11:52 am 11:52 Partly Cloudy 44 6.7 31 -0.6 60 60 W 7 11 30.02 1017 10 16 0.00 0.00
12:52 pm 12:52 Mostly Cloudy 46 7.8 32 0 58 58 NW 10 17 30.01 1016 10 16 0.00 0.00
1:52 pm 13:52 Mostly Cloudy 46 7.8 34 1.1 63 63 N 12 19 30.02 1017 10 16 0.00 0.00
2:52 pm 14:52 Mostly Cloudy 46 7.8 34 1.1 63 63 NNW 13 20 30.00 1016 10 16 0.00 0.00
3:52 pm 15:52 Mostly Cloudy 44 6.7 33 0.6 65 65 N 15 24 30.02 1017 10 16 0.00 0.00
4:52 pm 16:52 Mostly Cloudy 40 4.4 33 0.6 77 77 N 12 19 30.03 1017 10 16 0.00 0.00
5:52 pm 17:52 Partly Cloudy 36 2.2 32 0 86 86 N 9 15 30.04 1017 10 16 0.00 0.00
6:52 pm 18:52 Partly Cloudy 34 1.1 32 0 92 92 N 9 15 30.09 1019 10 16 0.00 0.00
7:52 pm 19:52 Clear 34 1.1 32 0 92 92 N 9 15 30.12 1020 10 16 0.00 0.00
8:52 pm 20:52 Clear 32 0 30 -1.1 92 92 N 9 15 30.13 1020 10 16 0.00 0.00
9:52 pm 21:52 Clear 30 -1.1 29 -1.7 96 96 N 8 13 30.14 1021 10 16 0.00 0.00
10:52 pm 22:52 Clear 32 0 30 -1.1 92 92 NNW 12 19 30.17 1022 10 16 0.00 0.00
11:52 pm 23:52 Mostly Clear 29 -1.7 27 -2.8 92 92 N 5 7 30.18 1022 10 16 0.00 0.00

Powered by AerisWeather